Simultaneous Nadir Overpasses (SNOs) Predictions

Prediction of SNOs between METOP-B and NOAA-19 Satellite Orbit:

Table of predicted SNOs for the next 14.0 days since TLE Epoch: 4/19/2014
Index Date (METOP-B) Time (METOP-B) Lat,Lon (METOP-B) SZA (METOP-B ) Date (NOAA-19) Time (NOAA-19) Lat,Lon (NOAA-19) SZA (NOAA-19 ) Distance(km) Time Diff (sec)
1 04/23/2014 15:08:48 74.10, -51.98 61.43 04/23/2014 15:07:36 74.15, -53.10 61.51 34.53 72
2 04/23/2014 15:59:35 -73.88, 114.80 118.80 04/23/2014 15:58:33 -73.88, 114.82 118.79 0.99 62
3 04/23/2014 16:50:14 73.88, -77.86 61.19 04/23/2014 16:49:34 73.88, -77.91 61.19 1.66 40
4 04/23/2014 17:40:57 -73.86, 89.40 118.85 04/23/2014 17:40:36 -73.85, 89.40 118.85 0.64 21
5 04/23/2014 18:31:36 73.86,-103.26 61.15 04/23/2014 18:31:37 73.84,-103.33 61.13 3.13 1
6 04/23/2014 19:22:19 -73.83, 64.00 118.89 04/23/2014 19:22:39 -73.82, 63.97 118.91 2.14 20
7 04/23/2014 20:12:59 73.78,-128.77 61.05 04/23/2014 20:13:40 73.80,-128.76 61.07 2.22 41
8 04/23/2014 21:03:42 -73.76, 38.49 118.99 04/23/2014 21:04:42 -73.78, 38.54 118.97 2.93 60
9 04/23/2014 21:54:27 73.46,-154.86 60.73 04/23/2014 21:55:37 73.47,-153.48 60.70 43.84 70




NCC Satellite Simultaneous Nadir Overpasses (SNOs) Prediction Service
